Home > Time Zones > World Clock > Weather > Russia > Ufa > Past weeks

Flag for Russia Weather past 2 weeks in Ufa, Russia

Now
3 °F

Ice fog.


Feels Like: 3 °F
Forecast: 3 / 14 °F
Wind: 1 mph from Southeast

Location: Ufa

Current Time: Jan 31, 2015 at 9:59:22 PM

Latest Report: Jan 31, 2015 at 9:30 PM


Visibility: 3 mi

Pressure: 30.36 "Hg

Humidity: 85%

Dew point: 0 °F

Location of UfaLocation

Historic Weather in Ufa — Graph

°F

Ufa temperature yesterday

Maximum temperature yesterday: 9 °F (at 2:30 PM)
Minimum temperature yesterday: -4 °F (at 8:30 AM)
Average temperature yesterday: 1 °F

Past Weeks' High & Low Weather Summary

 TemperatureHumidityPressure
High30 °F (Jan 17, 5:00 AM)100% (Jan 16, 11:30 PM)30.92 "Hg (Jan 16, 11:30 PM)
Low-24 °F (Jan 24, 9:30 AM)54% (Jan 29, 10:30 AM)29.92 "Hg (Jan 20, 6:00 AM)
Average4 °F80%30.41 "Hg
* Reported Jan 16 9:00 PM — Jan 31 9:00 PM, Ufa, Weather by CustomWeather, © 2014

Note: Actual official high and low records may vary slightly from our data, if they occured in-between our weather recording intervals... More about our weather records

Advertising

Ufa weather history for previous 24 hours

 ConditionsComfort  
Time TempWeatherWind HumidityBarometerVisibility
9:00 PM
Jan 31
5 °FIce fog.1 mph78%30.36 "Hg3 mi
8:30 PM5 °FIce fog.1 mph85%30.36 "Hg3 mi
8:00 PM3 °FIce fog.3 mph85%30.36 "Hg3 mi
7:30 PM5 °FIce fog.No wind85%30.36 "Hg3 mi
7:00 PM3 °FIce fog.1 mph85%30.36 "Hg2 mi
6:30 PM5 °FIce fog.1 mph85%30.36 "Hg2 mi
6:00 PM7 °FIce fog.3 mph85%30.36 "Hg2 mi
5:30 PM5 °FIce fog.1 mph85%30.36 "Hg2 mi
5:00 PM7 °FIce fog.No wind85%30.36 "Hg2 mi
4:30 PM7 °FIce fog.No wind85%30.36 "Hg2 mi
4:00 PM9 °FIce fog.No wind85%30.36 "Hg2 mi
3:30 PM7 °FIce fog.1 mph85%30.33 "Hg2 mi
3:00 PM5 °FIce fog.1 mph85%30.33 "Hg2 mi
2:30 PM5 °FIce fog.3 mph78%30.36 "Hg2 mi
2:00 PM3 °FIce fog.3 mph85%30.36 "Hg2 mi
1:30 PM3 °FIce fog.3 mph85%30.36 "Hg2 mi
1:00 PM1 °FIce fog.3 mph85%30.36 "Hg2 mi
12:30 PM-2 °FIce fog.3 mph84%30.33 "Hg2 mi
12:00 PM-4 °FIce fog.3 mph84%30.36 "Hg2 mi
11:30 AM-6 °FLight snow. Ice fog.3 mph84%30.36 "Hg2 mi
11:00 AM-6 °FLight snow. Ice fog.3 mph77%30.36 "Hg1 mi
10:30 AM-9 °FIce fog.3 mph84%30.36 "Hg2 mi
10:00 AM-9 °FIce fog.6 mph84%30.36 "Hg2 mi
9:30 AM-9 °FIce fog.3 mph84%30.36 "Hg2 mi
9:00 AM-9 °FIce fog.No wind77%30.33 "Hg2 mi
8:00 AM-6 °FIce fog.3 mph84%30.33 "Hg3 mi
7:30 AM-11 °FIce fog.1 mph84%30.33 "Hg1 mi
7:00 AM-9 °FIce fog.1 mph84%30.33 "Hg1 mi
6:30 AM-9 °FIce fog.3 mph84%30.30 "Hg2 mi
6:00 AM-9 °FIce fog.3 mph84%30.30 "Hg2 mi
5:30 AM-9 °FIce fog.No wind84%30.30 "Hg2 mi
5:00 AM-9 °FIce fog.3 mph92%30.30 "Hg2 mi
4:30 AM-9 °FIce fog.3 mph84%30.30 "Hg3 mi
4:00 AM-8 °FClear.No wind84%30.30 "Hg10 mi
3:30 AM-6 °FClear.3 mph84%30.30 "Hg10 mi
3:00 AM-6 °FClear.1 mph92%30.30 "Hg10 mi
2:30 AM-6 °FClear.No wind84%30.30 "Hg10 mi
1:30 AM-8 °FClear.1 mph84%30.27 "Hg10 mi
1:00 AM-6 °FClear.1 mph84%30.27 "Hg10 mi
12:30 AM-6 °FClear.3 mph77%30.27 "Hg10 mi
12:00 AM-6 °FClear.3 mph77%30.27 "Hg10 mi
11:30 PM
Jan 30
-4 °FClear.3 mph84%30.27 "Hg10 mi
11:00 PM-2 °FClear.1 mph77%30.27 "Hg10 mi
10:30 PM-2 °FClear.1 mph84%30.27 "Hg10 mi
10:00 PM-2 °FClear.No wind77%30.27 "Hg10 mi
9:30 PM0 °FClear.No wind71%30.27 "Hg10 mi
9:00 PM1 °FPassing clouds.3 mph71%30.27 "HgN/A
Weather by CustomWeather, © 2014

See weather overviewHow to use our weather pages